Hourly Data Report for October 06, 2017

All times are specified in Local Standard Time (LST). Add 1 hour to adjust for Daylight Saving Time where and when it is observed.

MISCOU ISLAND (AUT)
NEW BRUNSWICK

48°00'32.002" N
64°29'39.008" W
4.00 m
8103050
71719
WMI

Download Data

Hourly Data (October 2017)
Hourly Data Report for October 6, 2017
Temp Definition
°C
Dew Point Temp Definition
°C
Rel Hum Definition
%
Wind Dir Definition
10's deg

Wind Spd Definition
km/h
Visibility Definition
km
Stn Press Definition
kPa
Hmdx Definition


Wind Chill Definition


Weather Definition


TIME
00:00 13.2 9.2 76 24 26   100.83     LegendNANA
01:00 12.8 8.5 75 25 25   100.92     LegendNANA
02:00 12.1 8.5 79 26 23   100.91     LegendNANA
03:00 11.8 7.8 76 26 23   100.93     LegendNANA
04:00 11.3 7.4 77 25 24   100.98     LegendNANA
05:00 11.0 7.0 76 26 21   101.06     LegendNANA
06:00 10.2 6.2 76 27 17   101.15     LegendNANA
07:00 10.2 5.9 75 27 15   101.23     LegendNANA
08:00 10.4 5.1 70 27 16   101.31     LegendNANA
09:00 11.4 5.0 65 27 20   101.35     LegendNANA
10:00 12.4 5.2 61 27 23   101.36     LegendNANA
11:00 12.7 6.2 65 26 28   101.34     LegendNANA
12:00 12.8 6.7 66 25 25   101.31     LegendNANA
13:00 13.3 5.7 60 24 31   101.28     LegendNANA
14:00 14.6 5.5 54 25 29   101.25     LegendNANA
15:00 14.2 5.3 55 25 26   101.26     LegendNANA
16:00 14.0 6.0 59 25 25   101.29     LegendNANA
17:00 12.7 6.4 65 24 20   101.27     LegendNANA
18:00 10.5 6.1 74 24 14   101.37     LegendNANA
19:00 10.4 6.1 75 25 13   101.44     LegendNANA
20:00 9.5 6.5 81 26 11   101.50     LegendNANA
21:00 8.3 5.5 82 26 9   101.56     LegendNANA
22:00 8.4 5.4 81 31 8   101.64     LegendNANA
23:00 6.6 3.2 79 27 8   101.73     LegendNANA

Notes on Data Quality.

Legend

  • E = Estimated
  • M = Missing
  • NA = Not Available
  • ‡ = Partner data that is not subject to review by the National Climate Archives
Date modified: